• In Russia
  • List of Countries
  • For 7 days
  • Water Temperature
  • Satellite Maps
  • Weather Map
  • Weather Widgets
  • user-avatar
    Login

    Hourly Weather Shkoder

    Today, 17 July, Wednesday

    Time Temperature Precipitation Wind Pressure Humidity
    00:00 +17°C° 0 mm 3 mps 736 mmHg 69%
    01:00 +17°C° 0 mm 3 mps 736 mmHg 65%
    02:00 +17°C° 0 mm 3 mps 736 mmHg 66%
    03:00 +17°C° 0 mm 3 mps 736 mmHg 67%
    04:00 +16°C° 0 mm 3 mps 736 mmHg 68%
    05:00 +18°C° 0 mm 3 mps 736 mmHg 65%
    06:00 +20°C° 0 mm 3 mps 736 mmHg 61%
    07:00 +22°C° 0 mm 3 mps 737 mmHg 56%
    08:00 +24°C° 0 mm 3 mps 737 mmHg 52%
    09:00 +25°C° 0 mm 3 mps 737 mmHg 48%
    10:00 +27°C° 0 mm 3 mps 737 mmHg 43%
    11:00 +28°C° 0 mm 3 mps 737 mmHg 40%
    12:00 +28°C° 0 mm 3 mps 737 mmHg 38%
    13:00 +29°C° 0 mm 3 mps 737 mmHg 35%
    14:00 +29°C° 0 mm 3 mps 737 mmHg 35%
    15:00 +29°C° 0 mm 2 mps 737 mmHg 35%
    16:00 +30°C° 0 mm 2 mps 737 mmHg 36%
    17:00 +28°C° 0 mm 2 mps 737 mmHg 42%
    18:00 +26°C° 0 mm 2 mps 736 mmHg 48%
    19:00 +24°C° 0 mm 1 mps 736 mmHg 55%
    20:00 +23°C° 0 mm 2 mps 737 mmHg 56%
    21:00 +21°C° 0 mm 2 mps 737 mmHg 57%
    22:00 +20°C° 0 mm 2 mps 737 mmHg 58%
    23:00 +20°C° 0 mm 2 mps 737 mmHg 61%

    Tomorrow, 18 July, Thursday

    Time Temperature Precipitation Wind Pressure Humidity
    00:00 +19°C° 0 mm 2 mps 737 mmHg 64%
    01:00 +19°C° 0 mm 2 mps 737 mmHg 66%
    02:00 +19°C° 0 mm 2 mps 737 mmHg 68%
    03:00 +18°C° 0 mm 2 mps 737 mmHg 69%
    04:00 +18°C° 0 mm 2 mps 737 mmHg 70%
    05:00 +20°C° 0 mm 2 mps 737 mmHg 67%
    06:00 +21°C° 0 mm 2 mps 737 mmHg 63%
    07:00 +24°C° 0 mm 1 mps 737 mmHg 60%
    08:00 +25°C° 0 mm 1 mps 737 mmHg 54%
    09:00 +27°C° 0 mm 1 mps 738 mmHg 48%
    10:00 +29°C° 0 mm 1 mps 738 mmHg 42%
    11:00 +30°C° 0 mm 1 mps 738 mmHg 40%
    12:00 +30°C° 0 mm 2 mps 737 mmHg 37%
    13:00 +31°C° 0 mm 2 mps 737 mmHg 35%
    14:00 +31°C° 0 mm 2 mps 737 mmHg 37%
    15:00 +30°C° 0 mm 2 mps 737 mmHg 40%
    16:00 +29°C° 0 mm 3 mps 737 mmHg 42%
    17:00 +28°C° 0 mm 2 mps 737 mmHg 50%
    18:00 +26°C° 0 mm 1 mps 737 mmHg 57%
    19:00 +24°C° 0 mm 1 mps 737 mmHg 64%
    20:00 +23°C° 0 mm 1 mps 738 mmHg 65%
    21:00 +22°C° 0 mm 1 mps 738 mmHg 67%
    22:00 +21°C° 0 mm 1 mps 739 mmHg 68%
    23:00 +21°C° 0 mm 1 mps 739 mmHg 67%

    Day after tomorrow, 19 July, Friday

    Time Temperature Precipitation Wind Pressure Humidity
    00:00 +21°C° 0 mm 1 mps 739 mmHg 67%
    01:00 +21°C° 0 mm 1 mps 739 mmHg 66%
    02:00 +20°C° 0 mm 1 mps 739 mmHg 66%
    03:00 +20°C° 0 mm 1 mps 739 mmHg 65%
    04:00 +20°C° 0 mm 1 mps 739 mmHg 65%
    05:00 +22°C° 0 mm 1 mps 739 mmHg 61%
    06:00 +23°C° 0 mm 1 mps 739 mmHg 58%
    07:00 +25°C° 0 mm 1 mps 740 mmHg 54%
    08:00 +27°C° 0 mm 1 mps 740 mmHg 50%
    09:00 +28°C° 0 mm 1 mps 740 mmHg 46%
    10:00 +30°C° 0 mm 1 mps 740 mmHg 42%
    11:00 +30°C° 0 mm 2 mps 740 mmHg 40%
    12:00 +31°C° 0 mm 2 mps 740 mmHg 39%
    13:00 +31°C° 0 mm 3 mps 740 mmHg 37%
    14:00 +31°C° 0.1 mm 3 mps 740 mmHg 39%
    15:00 +31°C° 0.1 mm 3 mps 740 mmHg 40%
    16:00 +30°C° 0.1 mm 3 mps 739 mmHg 42%
    17:00 +28°C° 0.1 mm 2 mps 740 mmHg 49%
    18:00 +26°C° 0.1 mm 1 mps 740 mmHg 55%
    19:00 +24°C° 0.1 mm 1 mps 740 mmHg 62%
    20:00 +24°C° 0 mm 1 mps 740 mmHg 64%
    21:00 +23°C° 0 mm 1 mps 741 mmHg 65%
    22:00 +22°C° 0 mm 1 mps 741 mmHg 67%
    23:00 +22°C° 0 mm 1 mps 741 mmHg 66%

    20 July, Saturday

    Time Temperature Precipitation Wind Pressure Humidity
    00:00 +22°C° 0 mm 1 mps 741 mmHg 66%
    01:00 +21°C° 0 mm 1 mps 741 mmHg 65%
    02:00 +21°C° 0 mm 1 mps 741 mmHg 65%
    03:00 +21°C° 0 mm 1 mps 741 mmHg 65%
    04:00 +21°C° 0 mm 1 mps 741 mmHg 65%
    05:00 +23°C° 0 mm 1 mps 741 mmHg 61%
    06:00 +24°C° 0 mm 1 mps 741 mmHg 58%
    07:00 +26°C° 0 mm 1 mps 741 mmHg 54%
    08:00 +28°C° 0 mm 1 mps 741 mmHg 50%
    09:00 +29°C° 0 mm 1 mps 742 mmHg 46%
    10:00 +31°C° 0 mm 1 mps 742 mmHg 42%
    11:00 +31°C° 0.1 mm 2 mps 742 mmHg 41%
    12:00 +32°C° 0.1 mm 2 mps 742 mmHg 39%
    13:00 +34°C° 0.1 mm 3 mps 742 mmHg 38%
    14:00 +33°C° 0.1 mm 3 mps 741 mmHg 39%
    15:00 +32°C° 0.1 mm 2 mps 741 mmHg 40%
    16:00 +32°C° 0.1 mm 2 mps 741 mmHg 41%
    17:00 +30°C° 0 mm 2 mps 741 mmHg 46%
    18:00 +28°C° 0 mm 1 mps 741 mmHg 52%
    19:00 +26°C° 0 mm 1 mps 742 mmHg 58%
    20:00 +25°C° 0 mm 1 mps 742 mmHg 59%
    21:00 +25°C° 0 mm 1 mps 742 mmHg 60%
    22:00 +24°C° 0 mm 1 mps 743 mmHg 62%
    23:00 +24°C° 0 mm 1 mps 742 mmHg 61%

    21 July, Sunday

    Time Temperature Precipitation Wind Pressure Humidity
    00:00 +23°C° 0 mm 1 mps 742 mmHg 61%
    01:00 +23°C° 0 mm 1 mps 742 mmHg 61%
    02:00 +23°C° 0 mm 1 mps 742 mmHg 62%
    03:00 +23°C° 0 mm 1 mps 742 mmHg 63%
    04:00 +23°C° 0 mm 1 mps 742 mmHg 64%
    05:00 +24°C° 0 mm 1 mps 742 mmHg 60%
    06:00 +26°C° 0 mm 1 mps 742 mmHg 57%
    07:00 +28°C° 0 mm 1 mps 742 mmHg 54%
    08:00 +29°C° 0 mm 1 mps 743 mmHg 49%
    09:00 +31°C° 0 mm 1 mps 743 mmHg 45%
    10:00 +33°C° 0 mm 1 mps 743 mmHg 40%
    11:00 +33°C° 0.1 mm 1 mps 743 mmHg 38%
    12:00 +35°C° 0.1 mm 2 mps 743 mmHg 37%
    13:00 +36°C° 0.1 mm 2 mps 743 mmHg 35%
    14:00 +35°C° 0.1 mm 2 mps 742 mmHg 36%
    15:00 +35°C° 0.1 mm 2 mps 742 mmHg 38%
    16:00 +34°C° 0.1 mm 2 mps 742 mmHg 39%
    17:00 +32°C° 0.1 mm 1 mps 742 mmHg 45%
    18:00 +30°C° 0.1 mm 1 mps 742 mmHg 50%
    19:00 +28°C° 0.1 mm 1 mps 742 mmHg 56%
    20:00 +27°C° 0 mm 1 mps 742 mmHg 57%
    21:00 +26°C° 0 mm 1 mps 742 mmHg 58%
    22:00 +26°C° 0 mm 2 mps 743 mmHg 60%
    23:00 +25°C° 0 mm 2 mps 742 mmHg 60%

    22 July, Monday

    Time Temperature Precipitation Wind Pressure Humidity
    00:00 +25°C° 0 mm 2 mps 742 mmHg 61%
    01:00 +25°C° 0 mm 2 mps 742 mmHg 61%
    02:00 +24°C° 0 mm 2 mps 742 mmHg 62%
    03:00 +24°C° 0 mm 2 mps 742 mmHg 63%
    04:00 +24°C° 0 mm 2 mps 742 mmHg 64%
    05:00 +25°C° 0 mm 2 mps 742 mmHg 61%
    06:00 +27°C° 0 mm 2 mps 742 mmHg 58%
    07:00 +28°C° 0 mm 2 mps 742 mmHg 54%
    08:00 +30°C° 0 mm 2 mps 742 mmHg 49%
    09:00 +32°C° 0 mm 2 mps 742 mmHg 44%
    10:00 +34°C° 0 mm 2 mps 742 mmHg 39%
    11:00 +35°C° 0 mm 2 mps 742 mmHg 37%
    12:00 +36°C° 0 mm 2 mps 742 mmHg 34%
    13:00 +37°C° 0 mm 2 mps 741 mmHg 31%
    14:00 +37°C° 0 mm 2 mps 741 mmHg 31%
    15:00 +37°C° 0 mm 2 mps 741 mmHg 32%
    16:00 +37°C° 0 mm 2 mps 741 mmHg 32%
    17:00 +34°C° 0 mm 2 mps 741 mmHg 38%
    18:00 +31°C° 0 mm 1 mps 741 mmHg 45%
    19:00 +29°C° 0 mm 1 mps 740 mmHg 51%
    20:00 +28°C° 0 mm 2 mps 741 mmHg 53%
    21:00 +27°C° 0 mm 2 mps 741 mmHg 54%
    22:00 +27°C° 0 mm 2 mps 741 mmHg 56%
    23:00 +26°C° 0 mm 2 mps 741 mmHg 58%
    Show more